Weather History for Hurlburt Field, FL

Change the Weather History Date:

Friday, December 28, 2012

  Actual Average Record
Temperature  
Mean Temperature 52 °F -  
Max Temperature 68 °F 58 °F 74 °F (2008)
Min Temperature 35 °F 40 °F 21 °F (2010)
Degree Days  
Heating Degree Days 14    
Growing Degree Days 2 (Base 50)    
Moisture  
Dew Point 58 °F    
Average Humidity 97    
Maximum Humidity 100    
Minimum Humidity 88    
Precipitation  
Precipitation 0.56 in - - ()
Sea Level Pressure  
Sea Level Pressure 29.89 in    
Wind  
Wind Speed 8 mph (ESE)    
Max Wind Speed 21 mph    
Max Gust Speed 26 mph    
Visibility 8 miles    
Events Rain    
Averages and records for this station are not official NWS values.
T = Trace of Precipitation, MM = Missing Value Source: NWS Daily Summary

Daily Weather History Graph

Daily Weather History Graph

Search for Another Location

Airport:

Trip Planner

Search our weather history database for the weather conditions in past years. The results will help you decide how hot, cold, wet, or windy it might be!

Date:

Astronomy

Dec. 28, 2012 Rise Set
Actual Time 6:42 AM CST 4:54 PM CST
Civil Twilight 6:16 AM CST 5:21 PM CST
Nautical Twilight 5:46 AM CST 5:51 PM CST
Astronomical Twilight 5:16 AM CST 6:20 PM CST
Moon 5:26 PM CST (12/28) 6:40 AM CST (12/28)
Length of Visible Light 11h 05m
Length of Day
10h 12m
Full, 100% of the Moon is Illuminated
Dec 28
Full
Jan 4
Last Quarter
Jan 11
New
Jan 18
First Quarter
Jan 26
Full

Hourly Weather History & Observations

Time (CST) Temp. Windchill Dew Point Humidity Pressure Visibility Wind Dir Wind Speed Gust Speed Precip Events Conditions
12:55 AM 35.1 °F 32.2 °F 35.1 °F 100% 30.10 in 10.0 mi NE 3.5 mph - N/A   Clear
1:55 AM 37.2 °F 32.6 °F 37.2 °F 100% 30.10 in 10.0 mi ENE 5.8 mph - N/A   Clear
2:55 AM 38.3 °F 33.2 °F 37.0 °F 95% 30.08 in 10.0 mi ENE 6.9 mph - N/A   Clear
3:55 AM 38.3 °F 33.9 °F 37.2 °F 96% 30.08 in 10.0 mi NNE 5.8 mph - N/A   Clear
4:55 AM 38.3 °F 33.9 °F 37.4 °F 97% 30.07 in 10.0 mi ENE 5.8 mph - N/A   Clear
5:55 AM 40.3 °F 38.2 °F 39.9 °F 99% 30.06 in 10.0 mi NNE 3.5 mph - N/A   Mostly Cloudy
6:55 AM 42.8 °F 39.3 °F 42.8 °F 100% 30.05 in 10.0 mi ENE 5.8 mph - N/A   Scattered Clouds
7:55 AM 48.2 °F - 46.6 °F 94% 30.01 in 10.0 mi ESE 11.5 mph - N/A   Mostly Cloudy
8:18 AM 50.0 °F - 48.2 °F 94% 30.04 in 10.0 mi ESE 6.9 mph - N/A Rain Light Rain
8:24 AM 50.0 °F - 48.2 °F 94% 30.04 in 10.0 mi ESE 8.1 mph - N/A   Mostly Cloudy
8:55 AM 51.4 °F - 49.5 °F 93% 30.05 in 10.0 mi ENE 5.8 mph - 0.00 in   Scattered Clouds
9:05 AM 51.8 °F - 50.0 °F 94% 30.05 in 10.0 mi ENE 5.8 mph - N/A   Mostly Cloudy
9:25 AM 51.8 °F - 50.0 °F 94% 30.05 in 10.0 mi East 6.9 mph - N/A   Mostly Cloudy
9:55 AM 56.5 °F - 53.1 °F 88% 30.03 in 10.0 mi SE 12.7 mph - N/A   Scattered Clouds
10:57 AM 60.8 °F - 57.2 °F 88% 30.00 in 10.0 mi SE 12.7 mph - N/A   Mostly Cloudy
11:04 AM 60.8 °F - 57.2 °F 88% 29.99 in 10.0 mi East 9.2 mph - N/A   Mostly Cloudy
11:55 AM 60.6 °F - 57.9 °F 91% 29.97 in 10.0 mi ENE 8.1 mph - N/A   Overcast
12:55 PM 58.8 °F - 55.4 °F 88% 29.93 in 10.0 mi East 5.8 mph - N/A   Overcast
1:49 PM 59.0 °F - 55.4 °F 88% 29.91 in 10.0 mi East 5.8 mph - N/A   Overcast
1:55 PM 58.6 °F - 56.1 °F 91% 29.91 in 10.0 mi East 5.8 mph - N/A   Overcast
2:55 PM 58.8 °F - 57.2 °F 94% 29.90 in 10.0 mi East 6.9 mph - N/A   Overcast
3:16 PM 59.0 °F - 57.2 °F 94% 29.90 in 10.0 mi East 5.8 mph - N/A   Overcast
3:18 PM 59.0 °F - 57.2 °F 94% 29.90 in 10.0 mi ENE 6.9 mph - N/A   Overcast
3:25 PM 59.0 °F - 57.2 °F 94% 29.90 in 10.0 mi East 5.8 mph - N/A   Overcast
3:55 PM 59.0 °F - 57.6 °F 95% 29.88 in 10.0 mi East 9.2 mph - N/A   Overcast
4:55 PM 61.5 °F - 61.2 °F 99% 29.88 in 10.0 mi ESE 12.7 mph 17.3 mph N/A   Overcast
5:38 PM 60.8 °F - 60.8 °F 100% 29.86 in 10.0 mi ESE 13.8 mph 20.7 mph N/A Rain Light Rain
5:45 PM 60.8 °F - 60.8 °F 100% 29.86 in 10.0 mi ESE 11.5 mph - N/A Rain Light Rain
5:54 PM 60.8 °F - 60.8 °F 100% 29.86 in 10.0 mi ESE 12.7 mph 21.9 mph N/A   Overcast
5:55 PM 60.6 °F - 60.6 °F 100% 29.85 in 10.0 mi ESE 11.5 mph 21.9 mph 0.00 in   Overcast
6:08 PM 60.8 °F - 60.8 °F 100% 29.85 in 10.0 mi ESE 15.0 mph 21.9 mph N/A Rain Light Rain
6:22 PM 60.8 °F - 60.8 °F 100% 29.85 in 10.0 mi ESE 9.2 mph - N/A   Overcast
6:39 PM 60.8 °F - 60.8 °F 100% 29.85 in 10.0 mi ESE 9.2 mph 17.3 mph N/A   Light Drizzle
6:43 PM 60.8 °F - 60.8 °F 100% 29.85 in 9.0 mi ESE 10.4 mph - N/A Rain Light Rain
6:55 PM 60.8 °F - 60.8 °F 100% 29.83 in 5.0 mi SE 13.8 mph 21.9 mph N/A Rain Light Rain
7:55 PM 62.6 °F - 62.6 °F 100% 29.81 in 10.0 mi ESE 12.7 mph 21.9 mph N/A   Overcast
8:55 PM 66.2 °F - 66.2 °F 100% 29.78 in 10.0 mi South 17.3 mph - N/A   Light Drizzle
9:36 PM 66.2 °F - 66.2 °F 100% 29.78 in 10.0 mi South 18.4 mph - N/A   Light Drizzle
9:43 PM 66.2 °F - 66.2 °F 100% 29.77 in 9.0 mi South 15.0 mph - N/A Rain Light Rain
9:48 PM 66.2 °F - 66.2 °F 100% 29.77 in 9.0 mi South 15.0 mph - N/A Rain Light Rain
9:55 PM 66.9 °F - 66.9 °F 100% 29.76 in 8.0 mi South 20.7 mph 26.5 mph 0.02 in Rain Light Rain
10:03 PM 66.2 °F - 66.2 °F 100% 29.77 in 6.0 mi South 18.4 mph 26.5 mph N/A Rain Rain
10:28 PM 68.0 °F - 68.0 °F 100% 29.77 in 2.5 mi SSW 13.8 mph 25.3 mph N/A Rain Rain
10:39 PM 68.0 °F - 68.0 °F 100% 29.77 in 3.0 mi SSW 9.2 mph - N/A Rain Rain
10:48 PM 68.0 °F - 68.0 °F 100% 29.77 in 2.5 mi WSW 8.1 mph - N/A Rain Heavy Rain
10:52 PM 68.0 °F - 68.0 °F 100% 29.77 in 1.8 mi WSW 8.1 mph - N/A Rain Heavy Rain
10:54 PM 68.0 °F - 68.0 °F 100% 29.78 in 1.5 mi WSW 13.8 mph 18.4 mph N/A Rain Heavy Rain
10:55 PM 68.0 °F - 68.0 °F 100% 29.78 in 1.5 mi SW 13.8 mph 18.4 mph 0.44 in Rain Heavy Rain
10:56 PM 68.0 °F - 68.0 °F 100% 29.78 in 1.8 mi SW 11.5 mph 18.4 mph N/A Rain Heavy Rain
10:59 PM 68.0 °F - 68.0 °F 100% 29.77 in 2.0 mi WSW 6.9 mph 18.4 mph N/A Rain Light Rain
11:01 PM 68.0 °F - 68.0 °F 100% 29.75 in 3.0 mi West 4.6 mph 18.4 mph N/A Rain Light Rain
11:06 PM 68.0 °F - 68.0 °F 100% 29.77 in 2.5 mi Variable 6.9 mph - N/A Rain Light Rain
11:15 PM 68.0 °F - 68.0 °F 100% 29.77 in 3.0 mi West 10.4 mph 17.3 mph N/A Rain Rain
11:18 PM 68.0 °F - 68.0 °F 100% 29.78 in 8.0 mi West 10.4 mph 17.3 mph N/A Rain Light Rain
11:50 PM 64.4 °F - 64.4 °F 100% 29.76 in 10.0 mi NW 6.9 mph - N/A Rain Light Rain
11:54 PM 64.4 °F - 64.4 °F 100% 29.76 in 10.0 mi NW 5.8 mph - N/A   Overcast
11:55 PM 65.1 °F - 65.1 °F 100% 29.76 in 10.0 mi NW 5.8 mph - 0.10 in   Overcast